Port Angeles, WA
on Thursday, January 17, 2013

Thursday
Previous Day Next Day
Daily Summary
 ActualAverageRecord
Temperature
Mean Temperature °F °F  
Max Temperature 41°F 46°F 56°F (1971)
Min Temperature 30°F 35°F 21°F (1950)
Degree Days
Heating Degree Days 30    
Moisture
Dew Point 33°F   
Average Humidity 90    
Maximum Humidity 100    
Minimum Humidity 82    
Precipitation
Precipitation 0.00 in in in ()
Wind
Wind Speed 5 mph   
Max Wind Speed 7 mph   
Max Gust Speed mph   
Visibility 9 miles   
Events     
Averages and records for this station are not official NWS values.
Key: T is trace of precipitation, MM is missing value
Source: NWS Daily Summary
Seasonal Weather Averages
Time(PST)TemperatureDew PointHumidity Pressure Visibility Wind DirectionWind SpeedGust SpeedPrecipitationEvents Conditions
12:53 AM 37.9°F 34.0°F 86% 30.55 in 10.0 miles ESE 5.8 mph - N/A   Overcast
1:53 AM 37.9°F 34.0°F 86% 30.51 in 10.0 miles SE 6.9 mph - N/A   Overcast
2:53 AM 37.9°F 34.0°F 86% 30.50 in 10.0 miles SE 5.8 mph - N/A   Overcast
3:53 AM 37.4°F 33.8°F 87% 30.49 in 10.0 miles SSE 4.6 mph - N/A   Overcast
4:53 AM 37.0°F 33.1°F 86% 30.48 in 10.0 miles SSE 5.8 mph - N/A   Overcast
5:53 AM 37.0°F 33.1°F 86% 30.46 in 10.0 miles SSE 5.8 mph - N/A   Overcast
6:53 AM 37.0°F 33.1°F 86% 30.45 in 10.0 miles SSE 3.5 mph - N/A   Overcast
7:53 AM 37.0°F 33.1°F 86% 30.45 in 10.0 miles ESE 3.5 mph - N/A   Overcast
8:53 AM 37.0°F 34.0°F 89% 30.46 in 10.0 miles South 5.8 mph - N/A   Overcast
9:53 AM 37.9°F 34.0°F 86% 30.46 in 10.0 miles SSE 6.9 mph - N/A   Overcast
10:53 AM 39.0°F 35.1°F 86% 30.45 in 10.0 miles SE 3.5 mph - N/A   Overcast
11:53 AM 39.0°F 35.1°F 86% 30.42 in 10.0 miles ESE 3.5 mph - N/A   Overcast
12:53 PM 39.9°F 35.1°F 83% 30.40 in 10.0 miles ESE 4.6 mph - N/A   Overcast
1:53 PM 39.9°F 36.0°F 86% 30.36 in 10.0 miles ESE 4.6 mph - N/A   Overcast
2:11 PM 41.0°F 36.0°F 82% 30.33 in 10.0 miles Calm Calm - N/A   Scattered Clouds
2:53 PM 39.9°F 36.0°F 86% 30.35 in 10.0 miles East 3.5 mph - N/A   Clear
3:53 PM 39.0°F 35.1°F 86% 30.33 in 10.0 miles ESE 5.8 mph - N/A   Clear
4:02 PM 39.0°F 35.1°F 86% 30.32 in 10.0 miles ESE 3.5 mph - N/A   Scattered Clouds
4:16 PM 37.9°F 35.1°F 89% 30.32 in 10.0 miles East 4.6 mph - N/A   Mostly Cloudy
4:41 PM 37.0°F 35.1°F 93% 30.31 in 10.0 miles SE 5.8 mph - N/A   Scattered Clouds
4:53 PM 37.0°F 34.0°F 89% 30.33 in 7.0 miles Calm Calm - N/A   Clear
5:50 PM 35.6°F 33.8°F 93% 30.30 in 6.0 miles Calm Calm - N/A   Scattered Clouds
5:53 PM 35.1°F 33.1°F 92% 30.31 in 6.0 miles Calm Calm - N/A   Partly Cloudy
6:53 PM 34.0°F 32.0°F 92% 30.32 in 5.0 miles Calm Calm - N/A   Clear
7:53 PM 32.0°F 32.0°F 100% 30.32 in 8.0 miles Variable 3.5 mph - N/A   Clear
8:53 PM 33.1°F 32.0°F 96% 30.31 in 10.0 miles Calm Calm - N/A   Clear
9:53 PM 30.9°F 30.0°F 96% 30.31 in 8.0 miles South 3.5 mph - N/A   Clear
10:53 PM 30.0°F 28.9°F 96% 30.29 in 7.0 miles North - - N/A   Clear
11:04 PM 30.9°F 28.9°F 92% 30.28 in 7.0 miles North - - N/A   Scattered Clouds
11:13 PM 30.9°F 30.0°F 96% 30.28 in 7.0 miles North - - N/A   Mostly Cloudy
11:49 PM 33.8°F 33.8°F 100% 30.28 in 2.0 miles North - - N/A   Overcast
11:53 PM 34.0°F 33.1°F 96% 30.29 in 2.0 miles North - - N/A   Overcast
Moon Phase
Jan. 17 Jan. 18 Jan. 26 Feb. 03 Feb. 10
Sunrise:07:57 AM (PST) Moon Rise:10:33 AM (PST)1/17
Sunset:04:51 PM (PST) Moon Set:No Moon Set/

Copyright © 2014 The Weather Underground, Inc.